Regional Weather Roundup
Issued by NWS Columbia, SC

Home | Current Version | Previous Version | Text Only | Print | Product List | Glossary On
Versions: 1 2 3 4 5 6 7 8 9 10 11 12 13 14 15 16 17 18 19 20 21 22 23 24 25 26 27 28
000
ASUS42 KCAE 290110
RWRCAE
REGIONAL WEATHER ROUNDUP
NATIONAL WEATHER SERVICE COLUMBIA SC
900 PM EDT TUE MAR 28 2017

NOTE: "FAIR" INDICATES FEW OR NO CLOUDS BELOW 12,000 FEET WITH NO
SIGNIFICANT WEATHER AND/OR OBSTRUCTIONS TO VISIBILITY.

NOT ALL STATIONS ARE QUALITY CONTROLLED BY THE NATIONAL
WEATHER SERVICE. USE DATA WITH CAUTION...ESPECIALLY
DEWPOINT OBSERVATIONS.

SCZ001>056-GAZ040-063>065-077-290200-
...UPSTATE SOUTH CAROLINA...

CITY           SKY/WX    TMP DP  RH WIND       PRES   REMARKS
ANDERSON       CLEAR     70  49  47 W5        29.95R
LIBERTY        CLEAR     70  49  47 NW6       29.94R
SPARTANBURG    CLOUDY    72  50  46 CALM      29.94R
CLEMSON        CLEAR     73  47  39 W7        29.96R
GREENVILLE     CLEAR     74  47  38 NW5       29.95R
GREENWOOD      CLEAR     71  50  47 W5        29.95R
GREER          MOCLDY    71  47  42 CALM      29.93R
ROCK HILL      MOCLDY    68  51  54 NE5       29.94R
CHESTER        MOCLDY    70  52  52 N3        29.94R
LAURENS        CLEAR     72  55  56 W5        29.93R


...CENTRAL SOUTH CAROLINA...

CITY           SKY/WX    TMP DP  RH WIND       PRES   REMARKS
COLUMBIA APT   PTCLDY    74  58  57 W3        29.91R
COLUMBIA OWENS CLEAR     74  57  55 CALM      29.92R
MCENTIRE ANGB  CLEAR     73  56  56 CALM      29.91R
ORANGEBURG     CLEAR     71  56  58 SW3       29.92R
SUMTER SHAW    CLEAR     69  58  67 W3        29.89R
NEWBERRY       CLEAR     68  55  64 W5        29.96R
AIKEN          FAIR      68  55  64 SW3       29.97R
BARNWELL       FAIR      73  61  64 CALM      29.93R
MANNING        FAIR      68  57  68 CALM      29.92R
CAMDEN         FAIR      70  59  68 CALM      29.92R
LANCASTER      PTCLDY    68  55  64 NE3       29.93R
WINNSBORO      CLEAR     72  54  53 CALM      29.92R


...EASTERN AND COASTAL SOUTH CAROLINA...

CITY           SKY/WX    TMP DP  RH WIND       PRES   REMARKS
MYRTLE BEACH   PTCLDY    66  61  82 S5        29.91R
N MYRTLE BCH   PTCLDY    66  61  84 SW10      29.90R
CONWAY         FAIR      64  63  94 CALM      29.91R FOG
MARION         FAIR      68  55  64 CALM      29.90R
HARTSVILLE     MOCLDY    72  55  56 NW3       29.91R
FLORENCE       MOCLDY    72  57  59 SW5       29.90R
DARLINGTON     CLOUDY    71  60  68 N3        29.92R
CHARLESTON APT PTCLDY    66  62  87 S7        29.94R
MOUNT PLEASANT FAIR      70  63  78 SW5       29.94R
WALTERBORO     CLEAR     66  64  94 S3        29.94R
BEAUFORT       PTCLDY    68  67  96 CALM      29.94R


...EASTERN GEORGIA...

CITY           SKY/WX    TMP DP  RH WIND       PRES   REMARKS
AUGUSTA BUSH F CLEAR     69  60  73 SW3       29.92R
AUGUSTA DANIEL CLEAR     77  56  48 W3        29.94R
THOMSON        CLEAR     69  59  70 CALM      29.99R
WASHINGTON     FAIR      70  59  68 NW3       29.96R
CLAXTON        FAIR     N/A N/A N/A CALM      29.95S
SYLVANIA       CLEAR    N/A N/A N/A CALM      29.95R
STATESBORO     CLEAR     75  63  66 CALM      29.95R
SAVANNAH       PTCLDY    74  57  55 SW5       29.95R


...SOUTHERN NORTH CAROLINA...

CITY           SKY/WX    TMP DP  RH WIND       PRES   REMARKS
CHARLOTTE      MOCLDY    67  48  50 N7        29.94R
MONROE         MOCLDY    70  50  49 N6        29.93R
WADESBORO      CLEAR     63  55  75 CALM      29.92R
ROCKINGHAM     MOCLDY    72  55  55 CALM      29.92R
RUTHERFORDTON  CLEAR     67  49  52 NE7       29.97R
ASHEVILLE      CLEAR     63  49  60 N12       30.02R

$$




USA.gov is the U.S. government's official web portal to all federal, state and local government web resources and services.